Regional Weather Roundup
Issued by NWS

Home | Current Version | Previous Version | Graphics & Text | Print | Product List | Glossary On
Versions: 1 2 3 4 5 6 7 8 9 10 11 12 13 14 15 16 17 18 19 20 21 22 23 24 25 26 27 28 29 30 31 32 33 34 35 36 37 38 39 40 41 42 43 44 45 46 47 48 49 50
000
ASUS45 KBOU 242107
RWRCO

WEATHER ROUNDUP FOR COLORADO
NATIONAL WEATHER SERVICE DENVER/BOULDER CO
300 PM MDT WED AUG 24 2016

NOTE: "FAIR" INDICATES FEW OR NO CLOUDS BELOW 12000 FEET WITH NO
SIGNIFICANT WEATHER AND/OR OBSTRUCTIONS TO VISIBILITY.

COZ001>005-013-030-031-242200-
...NORTHWEST COLORADO...

CITY           SKY/WX    TMP DP  RH WIND       PRES   REMARKS
CRAIG          FAIR      82  27  13 NW16G25   30.14F
HAYDEN         FAIR      73  32  21 SW10G21   30.17S
MEEKER         FAIR      74  37  26 S3G18     30.16F
MOUNT WERNER   NOT AVBL
STEAMBOAT SPGS FAIR      73  37  26 SE10      30.20R
WALDEN         FAIR      63  30  29 N22G28    30.28S
$$

COZ006>008-011-242200-
...WEST CENTRAL VALLEYS...

CITY           SKY/WX    TMP DP  RH WIND       PRES   REMARKS
GRAND JUNCTION FAIR      83  47  28 VRB6      30.09F
MONTROSE       PTSUNNY   72  46  39 W7        30.20R
EAGLE          PTSUNNY   72  37  28 NW7       30.21S
RIFLE          LGT RAIN  73  41  31 VRB6G30   30.13F
DELTA          FAIR      77  46  33 S9        30.15S
NUCLA          FAIR      75  41  29 N5        30.24F
$$

COZ017>023-064>068-242200-
...SOUTHWEST COLORADO...

CITY           SKY/WX    TMP DP  RH WIND       PRES   REMARKS
DURANGO        FAIR      70  50  49 S8        30.24F
CORTEZ         FAIR      75  51  43 W6        30.20F
PAGOSA SPRINGS FAIR      64  46  51 SW8       30.31S
TELLURIDE      DRIZZLE   53  42  67 NE6       30.43R
WOLF CREEK PAS PTSUNNY   45  43  93 SW10      30.56F
$$

COZ009-010-012-014-032>034-037-058>063-242200-
...CENTRAL COLORADO...

CITY           SKY/WX    TMP DP  RH WIND       PRES   REMARKS
ASPEN          FAIR      71  32  23 NW17G24   30.26S
BUENA VISTA    PTSUNNY   64  44  48 E10       30.33S
COPPER MTN     FAIR      54  41  62 CALM      30.54F
BERTHOUD PASS  HAZE      37  25  60 E3        30.57S VSB<1/4
COTTONWOOD PAS CLOUDY    57  45  62 CALM      30.44S
GUNNISON       FAIR      66  43  42 SW10      30.30F
KREMMLING      LGT RAIN  61  37  41 S10G21    30.26S
LEADVILLE      LGT RAIN  53  40  61 NW10      30.40F
MONARCH PASS   FOG       41  41 100 NE10      30.64S VSB<1/4
SALIDA         CLOUDY    63  45  52 SW5       30.38F
SUNLIGHT       PTSUNNY   55  37  50 E7        30.50S
WILKERSON PASS FOG       41  39  93 E3        30.55F VSB<1/4
$$

COZ069>075-242200-
...SAN LUIS VALLEY/SANGRE DE CRISTO MOUNTAINS...

CITY           SKY/WX    TMP DP  RH WIND       PRES   REMARKS
ALAMOSA        FAIR      60  48  64 E3        30.30S
LA VETA PASS   CLOUDY    45  41  87 NE7       30.46S
SAGUACHE       PTSUNNY   64  45  48 NE14      30.31F
$$

COZ035-036-038>040-242200-
...NORTHERN COLORADO FRONT RANGE...

CITY           SKY/WX    TMP DP  RH WIND       PRES   REMARKS
DENVER INTL AP LGT RAIN  59  52  77 W8        30.26F
DMNS CITY PARK   N/A     58  54  88 SE6       30.26F
AURORA         LGT RAIN  58  55  91 W6        30.28F
FRONT RANGE AP LGT RAIN  63  55  77 W10       30.28S
ERIE MUNI ARPT PTSUNNY   64  50  62 S15       30.23F
BOULDER MUN AP DRIZZLE   64  48  55 SE9G17    30.22S
CENTENNIAL     LGT RAIN  58  52  80 W5        30.29S
BROOMFIELD     CLOUDY    59  54  82 S10       30.28S
FORT COLLINS   NOT AVBL
LONGMONT       FAIR      68  51  53 S10       30.23F
$$

COZ041-046-047-076>085-087-088-242200-
...PIKES PEAK/PALMER DIVIDE AND SOUTHERN FOOTHILLS...

CITY           SKY/WX    TMP DP  RH WIND       PRES   REMARKS
COLO. SPRINGS  CLOUDY    62  48  60 NW17      30.28S
A. F. ACADEMY  RAIN      55  52  88 N9        30.31R
SCHRIEVER AFB  NOT AVBL
ELLICOTT       NOT AVBL
FALCON         DRIZZLE   58  44  60 N9        30.32R
FORT CARSON    NOT AVBL
LIMON          PTSUNNY   73  33  23 NE12      30.21F
MONUMENT HILL  LGT RAIN  54  50  87 NW8       30.35S
TRINIDAD       CLOUDY    72  45  37 NE8       30.19F
$$

COZ042>045-048>051-090-091-242200-
...NORTHEAST COLORADO...

CITY           SKY/WX    TMP DP  RH WIND       PRES   REMARKS
GREELEY ARPT   FAIR      70  48  46 SE14      30.19F
AKRON          CLOUDY    70  32  24 E9        30.21F
BURLINGTON     PTSUNNY   69  40  34 NE16      30.18S
WRAY           FAIR      77  32  19 NE16      30.16S
STERLING       CLOUDY    70  45  40 SE7       30.16F
HOLYOKE        FAIR      79  37  22 E10G17    30.17S
FORT MORGAN    CLOUDY    66  41  39 CALM      30.22S
$$

COZ086-089-092>099-242200-
...SOUTHEAST COLORADO...

CITY           SKY/WX    TMP DP  RH WIND       PRES   REMARKS
PUEBLO         CLOUDY    77  44  30 E10       30.16S
LA JUNTA       FAIR      81  42  25 NE14      30.13F
LAMAR          FAIR      78  51  38 NE14      30.10S
SPRINGFIELD      N/A     78  54  43 N13       30.11F
$$



USA.gov is the U.S. government's official web portal to all federal, state and local government web resources and services.